Simultaneous Nadir Overpasses (SNOs) Predictions

Prediction of SNOs between METOP-A and TERRA Satellite Orbit:

Table of predicted SNOs for the next 14.0 days since TLE Epoch: 3/9/2013
Index Date (METOP-A) Time (METOP-A) Lat,Lon (METOP-A) SZA (METOP-A ) Date (TERRA) Time (TERRA) Lat,Lon (TERRA) SZA (TERRA ) Distance(km) Time Diff (sec)
1 03/09/2013 05:25:54 81.14, 137.13 87.21 03/09/2013 05:27:07 80.82, 138.36 87.09 42.04 73
2 03/09/2013 06:16:09 -81.37, -45.45 91.64 03/09/2013 06:16:10 -81.37, -45.35 91.62 1.85 1
3 03/09/2013 07:06:48 81.37, 122.09 88.38 03/09/2013 07:05:36 81.36, 122.06 88.34 0.84 72
4 03/12/2013 00:59:47 81.36,-146.71 87.26 03/12/2013 01:01:00 81.37,-146.66 87.30 1.15 73
5 03/12/2013 01:50:27 -81.37, 21.03 92.71 03/12/2013 01:50:27 -81.37, 20.91 92.72 2.04 0
6 03/12/2013 02:41:06 81.37,-171.06 87.35 03/12/2013 02:39:52 81.39,-170.94 87.34 2.90 74
7 03/14/2013 20:34:06 81.36, -80.31 86.18 03/14/2013 20:35:17 81.37, -80.14 86.24 3.04 71
8 03/14/2013 21:24:46 -81.37, 87.45 93.79 03/14/2013 21:24:44 -81.37, 87.45 93.79 0.39 2
9 03/17/2013 16:08:25 81.36, -13.95 85.09 03/17/2013 16:09:35 81.35, -14.10 85.09 2.77 70
10 03/17/2013 16:59:05 -81.37, 153.83 94.88 03/17/2013 16:59:01 -81.37, 153.89 94.87 1.11 4
11 03/20/2013 11:42:42 81.37, 52.76 84.04 03/20/2013 11:43:50 81.37, 52.61 84.05 2.55 68




NCC Satellite Simultaneous Nadir Overpasses (SNOs) Prediction Service
